| time (UTC) | temp F | wind direction | speed MPH | gust MPH | rain 1hr in | rain 24hr in | rain mn in | humidity % | barometer mb |
| 20260508210004 | 62 | 347 | 1.0 | 5.0 | 0.00 | 0.00 | 0.00 | 52 | 1007.4 |
| 20260508204505 | 65 | 318 | 1.0 | 8.0 | 0.00 | 0.00 | 0.00 | 47 | 1007.5 |
| 20260508203006 | 62 | 97 | 1.0 | 6.0 | 0.00 | 0.00 | 0.00 | 50 | 1007.6 |
| 20260508201504 | 64 | 98 | 2.0 | 9.0 | 0.00 | 0.00 | 0.00 | 51 | 1007.9 |
| 20260508200004 | 63 | 70 | 2.0 | 9.0 | 0.00 | 0.00 | 0.00 | 52 | 1008.1 |
| 20260508194503 | 62 | 14 | 1.0 | 4.0 | 0.00 | 0.00 | 0.00 | 51 | 1008.3 |
| 20260508193008 | 62 | 76 | 3.0 | 9.0 | 0.00 | 0.00 | 0.00 | 57 | 1008.6 |
| 20260508191503 | 60 | 296 | 4.0 | 10.0 | 0.00 | 0.00 | 0.00 | 54 | 1008.7 |
| 20260508190004 | 61 | 299 | 3.0 | 10.0 | 0.00 | 0.00 | 0.00 | 52 | 1008.9 |
| 20260508184506 | 63 | 303 | 4.0 | 9.0 | 0.00 | 0.00 | 0.00 | 50 | 1009.2 |
| 20260508183003 | 62 | 326 | 2.0 | 13.0 | 0.00 | 0.00 | 0.00 | 55 | 1009.2 |
| 20260508181503 | 59 | 288 | 2.0 | 7.0 | 0.00 | 0.00 | 0.00 | 53 | 1009.5 |
| 20260508180004 | 61 | 16 | 3.0 | 6.0 | 0.00 | 0.00 | 0.00 | 49 | 1009.6 |
| 20260508174506 | 60 | 306 | 1.0 | 8.0 | 0.00 | 0.00 | 0.00 | 50 | 1009.9 |
| 20260508173002 | 61 | 319 | 3.0 | 10.0 | 0.00 | 0.00 | 0.00 | 50 | 1010.3 |
| 20260508171508 | 60 | 5 | 3.0 | 6.0 | 0.00 | 0.00 | 0.00 | 55 | 1010.5 |
| 20260508170003 | 59 | 277 | 1.0 | 4.0 | 0.00 | 0.00 | 0.00 | 55 | 1010.7 |
| 20260508164503 | 60 | 127 | 2.0 | 9.0 | 0.00 | 0.00 | 0.00 | 53 | 1011.0 |
| 20260508163003 | 59 | 272 | 2.0 | 6.0 | 0.00 | 0.00 | 0.00 | 50 | 1011.2 |
| 20260508161504 | 60 | 79 | 1.0 | 8.0 | 0.00 | 0.00 | 0.00 | 57 | 1011.5 |
| 20260508160004 | 57 | 290 | 1.0 | 8.0 | 0.00 | 0.00 | 0.00 | 52 | 1011.4 |
| 20260508154502 | 57 | 131 | 2.0 | 6.0 | 0.00 | 0.00 | 0.00 | 58 | 1011.5 |
| 20260508153003 | 57 | 188 | 1.0 | 7.0 | 0.00 | 0.00 | 0.00 | 56 | 1011.4 |
| 20260508151502 | 56 | 342 | 1.0 | 5.0 | 0.00 | 0.00 | 0.00 | 64 | 1011.7 |
| 20260508150003 | 55 | 131 | 0.0 | 4.0 | 0.00 | 0.00 | 0.00 | 64 | 1011.8 |
| 20260508144559 | 54 | 331 | 1.0 | 4.0 | 0.00 | 0.00 | 0.00 | 66 | 1011.8 |
| 20260508143002 | 54 | 184 | 0.0 | 5.0 | 0.00 | 0.00 | 0.00 | 67 | 1012.1 |
| 20260508141505 | 52 | 78 | 2.0 | 4.0 | 0.00 | 0.00 | 0.00 | 67 | 1012.2 |
| 20260508140007 | 53 | 105 | 1.0 | 4.0 | 0.00 | 0.00 | 0.00 | 74 | 1012.1 |
| 20260508134503 | 51 | 69 | 0.0 | 5.0 | 0.00 | 0.00 | 0.00 | 76 | 1012.3 |
| 20260508133002 | 50 | 182 | 2.0 | 4.0 | 0.00 | 0.00 | 0.00 | 75 | 1012.5 |
| 20260508131504 | 49 | 333 | 1.0 | 3.0 | 0.00 | 0.00 | 0.00 | 76 | 1012.5 |
| 20260508130002 | 49 | 82 | 0.0 | 2.0 | 0.00 | 0.00 | 0.00 | 80 | 1012.4 |
| 20260508124504 | 48 | 92 | 0.0 | 3.0 | 0.00 | 0.00 | 0.00 | 81 | 1012.4 |
| 20260508123005 | 47 | 94 | 0.0 | 3.0 | 0.00 | 0.00 | 0.00 | 82 | 1012.2 |
| 20260508121504 | 46 | 311 | 0.0 | 3.0 | 0.00 | 0.00 | 0.00 | 84 | 1012.1 |
| 20260508120004 | 44 | 311 | 0.0 | 1.0 | 0.00 | 0.00 | 0.00 | 86 | 1012.1 |
| 20260508114503 | 43 | 311 | 0.0 | 0.0 | 0.00 | 0.00 | 0.00 | 91 | 1012.1 |
| 20260508113006 | 41 | 311 | 0.0 | 0.0 | 0.00 | 0.00 | 0.00 | 91 | 1011.8 |
| 20260508111504 | 40 | 311 | 0.0 | 0.0 | 0.00 | 0.00 | 0.00 | 90 | 1011.6 |
| 20260508110004 | 39 | 311 | 0.0 | 0.0 | 0.00 | 0.00 | 0.00 | 89 | 1011.4 |
| 20260508104503 | 39 | 311 | 0.0 | 0.0 | 0.00 | 0.00 | 0.00 | 87 | 1011.4 |
| 20260508103008 | 39 | 311 | 0.0 | 0.0 | 0.00 | 0.00 | 0.00 | 86 | 1011.2 |
| 20260508101504 | 39 | 311 | 0.0 | 0.0 | 0.00 | 0.00 | 0.00 | 86 | 1011.2 |
| 20260508100006 | 40 | 311 | 0.0 | 0.0 | 0.00 | 0.00 | 0.00 | 86 | 1011.2 |
| 20260508094606 | 40 | 311 | 0.0 | 0.0 | 0.00 | 0.00 | 0.00 | 85 | 1011.2 |
| 20260508093004 | 40 | 311 | 0.0 | 0.0 | 0.00 | 0.00 | 0.00 | 84 | 1011.3 |
| 20260508091503 | 41 | 311 | 0.0 | 0.0 | 0.00 | 0.00 | 0.00 | 84 | 1011.2 |
| 20260508090004 | 41 | 311 | 0.0 | 0.0 | 0.00 | 0.00 | 0.00 | 85 | 1011.3 |
| 20260508084503 | 42 | 311 | 0.0 | 0.0 | 0.00 | 0.00 | 0.00 | 85 | 1011.3 |
| 20260508083003 | 42 | 311 | 0.0 | 0.0 | 0.00 | 0.00 | 0.00 | 85 | 1011.4 |
| 20260508081513 | 42 | 311 | 0.0 | 2.0 | 0.00 | 0.00 | 0.00 | 85 | 1011.4 |
| 20260508080004 | 42 | 311 | 0.0 | 0.0 | 0.00 | 0.00 | 0.00 | 85 | 1011.9 |
| 20260508074504 | 42 | 311 | 0.0 | 0.0 | 0.00 | 0.00 | 0.00 | 85 | 1011.8 |
| 20260508073003 | 42 | 311 | 0.0 | 0.0 | 0.00 | 0.00 | 0.00 | 84 | 1011.8 |
| 20260508071624 | 41 | 311 | 0.0 | 0.0 | 0.00 | 0.00 | 0.00 | 84 | 1011.6 |
| 20260508070004 | 42 | 311 | 0.0 | 0.0 | 0.00 | 0.00 | 0.00 | 83 | 1011.8 |
| 20260508064506 | 42 | 311 | 0.0 | 0.0 | 0.00 | 0.00 | 0.00 | 83 | 1011.8 |
| 20260508063003 | 42 | 311 | 0.0 | 0.0 | 0.00 | 0.00 | 0.00 | 82 | 1011.8 |
| 20260508061503 | 42 | 311 | 0.0 | 0.0 | 0.00 | 0.00 | 0.00 | 82 | 1011.8 |
| 20260508060004 | 42 | 311 | 0.0 | 0.0 | 0.00 | 0.00 | 0.00 | 81 | 1011.7 |
| 20260508054503 | 43 | 311 | 0.0 | 0.0 | 0.00 | 0.00 | 0.00 | 80 | 1012.0 |
| 20260508053003 | 43 | 311 | 0.0 | 0.0 | 0.00 | 0.00 | 0.00 | 78 | 1012.0 |
| 20260508051503 | 44 | 311 | 0.0 | 0.0 | 0.00 | 0.00 | 0.00 | 76 | 1012.1 |
| 20260508050005 | 44 | 311 | 0.0 | 0.0 | 0.00 | 0.00 | 0.00 | 74 | 1012.1 |
| 20260508044503 | 45 | 311 | 0.0 | 0.0 | 0.00 | 0.00 | 0.00 | 73 | 1012.0 |
| 20260508043003 | 46 | 311 | 0.0 | 0.0 | 0.00 | 0.00 | 0.00 | 72 | 1012.0 |
| 20260508041504 | 47 | 311 | 0.0 | 0.0 | 0.00 | 0.00 | 0.00 | 70 | 1012.0 |
| 20260508040007 | 48 | 311 | 0.0 | 0.0 | 0.00 | 0.00 | 0.00 | 69 | 1012.1 |
| 20260508034504 | 48 | 311 | 0.0 | 2.0 | 0.00 | 0.00 | 0.00 | 69 | 1012.1 |
| 20260508033002 | 49 | 331 | 0.0 | 1.0 | 0.00 | 0.00 | 0.00 | 68 | 1012.2 |
| 20260508031503 | 49 | 302 | 0.0 | 0.0 | 0.00 | 0.00 | 0.00 | 68 | 1012.3 |
| 20260508030005 | 49 | 302 | 0.0 | 3.0 | 0.00 | 0.00 | 0.00 | 67 | 1012.4 |
| 20260508024504 | 50 | 355 | 0.0 | 3.0 | 0.00 | 0.00 | 0.00 | 66 | 1012.4 |
| 20260508023006 | 50 | 309 | 0.0 | 0.0 | 0.00 | 0.00 | 0.00 | 66 | 1012.4 |
| 20260508021504 | 50 | 323 | 0.0 | 8.0 | 0.00 | 0.00 | 0.00 | 64 | 1012.3 |
| 20260508020006 | 50 | 169 | 0.0 | 2.0 | 0.00 | 0.00 | 0.00 | 63 | 1012.2 |
| 20260508014504 | 50 | 119 | 1.0 | 3.0 | 0.00 | 0.00 | 0.00 | 61 | 1012.1 |
| 20260508013001 | 49 | 212 | 0.0 | 11.0 | 0.00 | 0.00 | 0.00 | 59 | 1012.0 |
| 20260508011506 | 50 | 57 | 0.0 | 0.0 | 0.00 | 0.00 | 0.00 | 61 | 1011.4 |
| 20260508010005 | 51 | 57 | 0.0 | 0.0 | 0.00 | 0.00 | 0.00 | 57 | 1011.3 |
| 20260508004504 | 52 | 57 | 0.0 | 0.0 | 0.00 | 0.00 | 0.00 | 52 | 1011.2 |
| 20260508003005 | 53 | 57 | 0.0 | 0.0 | 0.00 | 0.00 | 0.00 | 49 | 1011.2 |
| 20260508001512 | 53 | 57 | 0.0 | 3.0 | 0.00 | 0.00 | 0.00 | 47 | 1011.1 |
| 20260508000006 | 54 | 66 | 0.0 | 5.0 | 0.00 | 0.00 | 0.00 | 46 | 1011.1 |
| 20260507234505 | 54 | 73 | 0.0 | 7.0 | 0.00 | 0.00 | 0.00 | 45 | 1011.1 |
| 20260507233009 | 54 | 76 | 1.0 | 6.0 | 0.00 | 0.00 | 0.00 | 46 | 1011.2 |
| 20260507231510 | 54 | 68 | 0.0 | 6.0 | 0.00 | 0.00 | 0.00 | 48 | 1011.2 |
| 20260507230018 | 54 | 69 | 2.0 | 8.0 | 0.00 | 0.00 | 0.00 | 46 | 1011.2 |
| 20260507224506 | 55 | 42 | 3.0 | 9.0 | 0.00 | 0.00 | 0.00 | 41 | 1011.4 |
| 20260507223004 | 55 | 130 | 1.0 | 4.0 | 0.00 | 0.00 | 0.00 | 46 | 1011.3 |
| 20260507221504 | 55 | 78 | 3.0 | 11.0 | 0.00 | 0.00 | 0.00 | 41 | 1011.5 |
| 20260507220004 | 55 | 61 | 7.0 | 17.0 | 0.00 | 0.00 | 0.00 | 41 | 1011.6 |
| 20260507214503 | 56 | 90 | 7.0 | 14.0 | 0.00 | 0.00 | 0.00 | 39 | 1011.5 |
| 20260507213003 | 54 | 123 | 2.0 | 11.0 | 0.00 | 0.00 | 0.00 | 45 | 1011.5 |
| 20260507211510 | 56 | 106 | 6.0 | 12.0 | 0.00 | 0.00 | 0.00 | 42 | 1011.6 |